Louisa, VA

6:49 AM EDT on October 21, 2017 (GMT -0400)
Louisa County-Freeman

Weather History for KLKU - May, 2013

Change the Weather History Date:

Saturday, May 4, 2013

  Actual Average (KOMH) Record (KOMH)
Temperature  
Mean Temperature 52 °F -  
Max Temperature 64 °F 71 °F 91 °F (1965)
Min Temperature 39 °F 47 °F 35 °F (1957)
Degree Days  
Heating Degree Days 14    
Growing Degree Days 2 (Base 50)    
Moisture  
Dew Point 43 °F    
Average Humidity 72    
Maximum Humidity 93    
Minimum Humidity 49    
Precipitation  
Precipitation 0.00 in - - ()
Sea Level Pressure  
Sea Level Pressure 30.23 in    
Wind  
Wind Speed 4 mph (NE)    
Max Wind Speed 12 mph    
Max Gust Speed 17 mph    
Visibility 10 miles    
Events      
Averages and records for this station are not official NWS values.
T = Trace of Precipitation, MM = Missing Value Source: NWS Daily Summary

Daily Weather History Graph

Daily Weather History Graph

Search for Another Location

Airport or City:

Trip Planner

Search our weather history database for the weather conditions in past years. The results will help you decide how hot, cold, wet, or windy it might be!

Date:

Astronomy

May. 04, 2013 Rise Set
Actual Time 6:12 AM EDT 8:05 PM EDT
Civil Twilight 5:43 AM EDT 8:34 PM EDT
Nautical Twilight 5:08 AM EDT 9:09 PM EDT
Astronomical Twilight 4:31 AM EDT 9:46 PM EDT
Moon 3:04 AM EDT (5/4) 3:06 PM EDT (5/4)
Length of Visible Light 14h 50m
Length of Day
13h 53m
Waning Crescent, 27% of the Moon is Illuminated
May 4
Waning Crescent
May 9
New
May 18
First Quarter
May 25
Full
May 31
Last Quarter

Hourly Weather History & Observations

Time (EDT) Temp. Windchill Dew Point Humidity Pressure Visibility Wind Dir Wind Speed Gust Speed Precip Events Conditions
12:15 AM 41.0 °F - 37.4 °F 87% 30.30 in 10.0 mi Calm Calm - N/A   Clear
12:35 AM 41.0 °F - 37.4 °F 87% 30.30 in 10.0 mi Calm Calm - N/A   Clear
12:55 AM 39.2 °F - 37.4 °F 93% 30.29 in 10.0 mi Calm Calm - N/A   Clear
1:15 AM 42.8 °F 41.1 °F 39.2 °F 87% 30.28 in 10.0 mi NE 3.5 mph - N/A   Clear
1:35 AM 42.8 °F - 39.2 °F 87% 30.28 in 10.0 mi Calm Calm - N/A   Clear
1:55 AM 42.8 °F 41.1 °F 39.2 °F 87% 30.27 in 10.0 mi NNE 3.5 mph - N/A   Clear
2:15 AM 41.0 °F 38.0 °F 37.4 °F 87% 30.26 in 10.0 mi NNE 4.6 mph - N/A   Clear
2:35 AM 42.8 °F 40.1 °F 39.2 °F 87% 30.26 in 10.0 mi NNE 4.6 mph - N/A   Clear
2:55 AM 44.6 °F 42.2 °F 39.2 °F 81% 30.25 in 10.0 mi NE 4.6 mph - N/A   Clear
3:15 AM 42.8 °F 41.1 °F 39.2 °F 87% 30.26 in 10.0 mi NE 3.5 mph - N/A   Clear
3:35 AM 42.8 °F 41.1 °F 39.2 °F 87% 30.26 in 10.0 mi NNE 3.5 mph - N/A   Clear
3:55 AM 39.2 °F 37.0 °F 37.4 °F 93% 30.26 in 10.0 mi North 3.5 mph - N/A   Clear
4:15 AM 39.2 °F 37.0 °F 37.4 °F 93% 30.26 in 10.0 mi North 3.5 mph - N/A   Clear
4:35 AM 41.0 °F 39.0 °F 39.2 °F 93% 30.26 in 10.0 mi North 3.5 mph - N/A   Clear
4:55 AM 41.0 °F - 37.4 °F 87% 30.26 in 10.0 mi Calm Calm - N/A   Clear
5:15 AM 39.2 °F 35.9 °F 37.4 °F 93% 30.26 in 10.0 mi North 4.6 mph - N/A   Clear
5:35 AM 39.2 °F 37.0 °F 37.4 °F 93% 30.26 in 10.0 mi North 3.5 mph - N/A   Clear
5:55 AM 41.0 °F 39.0 °F 39.2 °F 93% 30.27 in 10.0 mi North 3.5 mph - N/A   Mostly Cloudy
6:15 AM 42.8 °F 41.1 °F 39.2 °F 87% 30.27 in 10.0 mi North 3.5 mph - N/A   Overcast
6:35 AM 42.8 °F 41.1 °F 39.2 °F 87% 30.27 in 10.0 mi North 3.5 mph - N/A   Overcast
6:55 AM 42.8 °F 40.1 °F 39.2 °F 87% 30.27 in 10.0 mi North 4.6 mph - N/A   Overcast
7:15 AM 44.6 °F - 41.0 °F 87% 30.27 in 10.0 mi Calm Calm - N/A   Overcast
7:35 AM 44.6 °F 43.1 °F 41.0 °F 87% 30.27 in 10.0 mi North 3.5 mph - N/A   Overcast
7:55 AM 46.4 °F 45.2 °F 42.8 °F 87% 30.27 in 10.0 mi North 3.5 mph - N/A   Overcast
8:15 AM 46.4 °F - 42.8 °F 87% 30.27 in 10.0 mi Calm Calm - N/A   Overcast
8:35 AM 46.4 °F 45.2 °F 42.8 °F 87% 30.27 in 10.0 mi North 3.5 mph - N/A   Overcast
8:55 AM 48.2 °F - 44.6 °F 87% 30.27 in 10.0 mi North 4.6 mph - N/A   Overcast
9:15 AM 50.0 °F - 44.6 °F 82% 30.26 in 10.0 mi NE 5.8 mph - N/A   Overcast
9:35 AM 51.8 °F - 44.6 °F 76% 30.26 in 10.0 mi East 10.4 mph - N/A   Overcast
9:55 AM 53.6 °F - 44.6 °F 72% 30.25 in 10.0 mi ENE 6.9 mph - N/A   Overcast
10:15 AM 53.6 °F - 44.6 °F 72% 30.25 in 10.0 mi NE 6.9 mph - N/A   Overcast
10:35 AM 53.6 °F - 44.6 °F 72% 30.25 in 10.0 mi NNE 9.2 mph - N/A   Overcast
10:55 AM 55.4 °F - 44.6 °F 67% 30.25 in 10.0 mi ENE 8.1 mph - N/A   Overcast
11:15 AM 55.4 °F - 44.6 °F 67% 30.24 in 10.0 mi NE 8.1 mph - N/A   Overcast
11:35 AM 55.4 °F - 46.4 °F 72% 30.24 in 10.0 mi ENE 5.8 mph - N/A   Overcast
11:55 AM 57.2 °F - 46.4 °F 67% 30.24 in 10.0 mi ENE 5.8 mph - N/A   Overcast
12:15 PM 57.2 °F - 46.4 °F 67% 30.23 in 10.0 mi NE 5.8 mph 9.2 mph N/A   Overcast
12:35 PM 57.2 °F - 46.4 °F 67% 30.23 in 10.0 mi NE 6.9 mph - N/A   Overcast
12:55 PM 60.8 °F - 46.4 °F 59% 30.22 in 10.0 mi NE 4.6 mph - N/A   Overcast
1:15 PM 60.8 °F - 46.4 °F 59% 30.22 in 10.0 mi ENE 4.6 mph - N/A   Overcast
1:35 PM 60.8 °F - 46.4 °F 59% 30.21 in 10.0 mi NNE 5.8 mph - N/A   Overcast
1:55 PM 62.6 °F - 48.2 °F 59% 30.21 in 10.0 mi ENE 8.1 mph - N/A   Overcast
2:15 PM 62.6 °F - 48.2 °F 59% 30.20 in 10.0 mi NE 6.9 mph - N/A   Mostly Cloudy
2:35 PM 62.6 °F - 48.2 °F 59% 30.20 in 10.0 mi NE 6.9 mph - N/A   Overcast
2:55 PM 62.6 °F - 46.4 °F 55% 30.19 in 10.0 mi East 6.9 mph - N/A   Mostly Cloudy
3:15 PM 64.4 °F - 48.2 °F 56% 30.18 in 10.0 mi East 4.6 mph - N/A   Scattered Clouds
3:35 PM 64.4 °F - 46.4 °F 52% 30.18 in 10.0 mi ENE 10.4 mph - N/A   Clear
4:15 PM 64.4 °F - 46.4 °F 52% 30.16 in 10.0 mi East 6.9 mph - N/A   Scattered Clouds
4:35 PM 64.4 °F - 46.4 °F 52% 30.16 in 10.0 mi East 5.8 mph - N/A   Scattered Clouds
4:55 PM 64.4 °F - 46.4 °F 52% 30.16 in 10.0 mi East 9.2 mph 17.3 mph N/A   Scattered Clouds
5:15 PM 64.4 °F - 46.4 °F 52% 30.16 in 10.0 mi East 8.1 mph - N/A   Mostly Cloudy
5:35 PM 64.4 °F - 44.6 °F 49% 30.16 in 10.0 mi East 10.4 mph 17.3 mph N/A   Scattered Clouds
5:55 PM 64.4 °F - 44.6 °F 49% 30.16 in 10.0 mi ENE 9.2 mph - N/A   Scattered Clouds
6:15 PM 64.4 °F - 44.6 °F 49% 30.16 in 10.0 mi ENE 11.5 mph 16.1 mph N/A   Clear
6:35 PM 62.6 °F - 44.6 °F 52% 30.15 in 10.0 mi ENE 9.2 mph 17.3 mph N/A   Scattered Clouds
6:55 PM 62.6 °F - 46.4 °F 55% 30.15 in 10.0 mi ENE 5.8 mph - N/A   Scattered Clouds
7:15 PM 62.6 °F - 46.4 °F 55% 30.15 in 10.0 mi East 5.8 mph - N/A   Scattered Clouds
7:35 PM 60.8 °F - 46.4 °F 59% 30.16 in 10.0 mi East 4.6 mph - N/A   Scattered Clouds
7:55 PM 59.0 °F - 44.6 °F 59% 30.17 in 10.0 mi East 5.8 mph - N/A   Clear
8:15 PM 57.2 °F - 44.6 °F 63% 30.17 in 10.0 mi East 3.5 mph - N/A   Clear
8:35 PM 53.6 °F - 44.6 °F 72% 30.18 in 10.0 mi Calm Calm - N/A   Clear
8:55 PM 51.8 °F - 44.6 °F 76% 30.19 in 10.0 mi East 3.5 mph - N/A   Clear
9:15 PM 51.8 °F - 44.6 °F 76% 30.19 in 10.0 mi East 4.6 mph - N/A   Clear
9:35 PM 53.6 °F - 42.8 °F 67% 30.20 in 10.0 mi East 3.5 mph - N/A   Clear
9:55 PM 53.6 °F - 42.8 °F 67% 30.20 in 10.0 mi East 5.8 mph - N/A   Clear
10:15 PM 53.6 °F - 37.4 °F 54% 30.21 in 10.0 mi East 5.8 mph - N/A   Clear
10:35 PM 51.8 °F - 39.2 °F 62% 30.21 in 10.0 mi ENE 5.8 mph - N/A   Clear
10:55 PM 51.8 °F - 37.4 °F 58% 30.21 in 10.0 mi ENE 4.6 mph - N/A   Clear
11:15 PM 48.2 °F - 37.4 °F 66% 30.20 in 10.0 mi NE 4.6 mph - N/A   Clear
11:35 PM 48.2 °F - 35.6 °F 62% 30.20 in 10.0 mi NE 3.5 mph - N/A   Clear
11:55 PM 44.6 °F - 37.4 °F 76% 30.20 in 10.0 mi Calm Calm - N/A   Clear